| time (UTC) | temp C | wind direction | speed KPH | gust KPH | rain 1hr cm | rain 24hr cm | rain mn cm | humidity % | barometer mb |
| 20260510093002 | 15 | 170 | 4.8 | 0.0 | 0.00 | 0.00 | 0.00 | 57 | 1008.9 |
| 20260510091502 | 15 | 170 | 4.8 | 0.0 | 0.00 | 0.00 | 0.00 | 61 | 1008.9 |
| 20260510090002 | 15 | 130 | 6.4 | 0.0 | 0.00 | 0.00 | 0.00 | 61 | 1008.9 |
| 20260510084502 | 14 | 150 | 9.7 | 0.0 | 0.00 | 0.00 | 0.00 | 61 | 1009.3 |
| 20260510083002 | 14 | 150 | 9.7 | 0.0 | 0.00 | 0.00 | 0.00 | 61 | 1009.3 |
| 20260510081502 | 13 | 140 | 9.7 | 0.0 | 0.00 | 0.00 | 0.00 | 64 | 1009.7 |
| 20260510080002 | 13 | 140 | 9.7 | 0.0 | 0.00 | 0.00 | 0.00 | 64 | 1009.7 |
| 20260510074503 | 12 | 140 | 9.7 | 0.0 | 0.00 | 0.00 | 0.00 | 68 | 1009.8 |
| 20260510073002 | 12 | 150 | 8.0 | 0.0 | 0.00 | 0.00 | 0.00 | 68 | 1009.8 |
| 20260510071502 | 11 | 150 | 8.0 | 0.0 | 0.00 | 0.00 | 0.00 | 71 | 1009.9 |
| 20260510070002 | 11 | 150 | 8.0 | 0.0 | 0.00 | 0.00 | 0.00 | 71 | 1009.9 |
| 20260510064502 | 10 | 150 | 8.0 | 0.0 | 0.00 | 0.00 | 0.00 | 77 | 1010.1 |
| 20260510063002 | 10 | 140 | 4.8 | 0.0 | 0.00 | 0.00 | 0.00 | 77 | 1010.1 |
| 20260510061502 | 9 | 140 | 4.8 | 0.0 | 0.00 | 0.00 | 0.00 | 80 | 1010.1 |
| 20260510060003 | 9 | 120 | 4.8 | 0.0 | 0.00 | 0.00 | 0.00 | 80 | 1010.1 |
| 20260510054502 | 8 | 120 | 6.4 | 0.0 | 0.00 | 0.00 | 0.00 | 83 | 1010.1 |
| 20260510053002 | 8 | 120 | 6.4 | 0.0 | 0.00 | 0.00 | 0.00 | 83 | 1010.1 |
| 20260510051502 | 7 | 120 | 6.4 | 0.0 | 0.00 | 0.00 | 0.00 | 87 | 1010.5 |
| 20260510050002 | 7 | 120 | 3.2 | 0.0 | 0.00 | 0.00 | 0.00 | 87 | 1010.5 |
| 20260510044502 | 5 | 120 | 3.2 | 0.0 | 0.00 | 0.00 | 0.00 | 95 | 1010.6 |
| 20260510043002 | 5 | 100 | 3.2 | 0.0 | 0.00 | 0.00 | 0.00 | 95 | 1010.6 |
| 20260510041503 | 5 | 50 | 1.6 | 0.0 | 0.00 | 0.00 | 0.00 | 95 | 1010.8 |
| 20260510040002 | 5 | 50 | 1.6 | 0.0 | 0.00 | 0.00 | 0.00 | 95 | 1010.8 |
| 20260510034502 | 6 | 130 | 4.8 | 0.0 | 0.00 | 0.00 | 0.00 | 90 | 1010.7 |
| 20260510033002 | 6 | 130 | 4.8 | 0.0 | 0.00 | 0.00 | 0.00 | 90 | 1010.7 |
| 20260510031502 | 7 | 130 | 4.8 | 0.0 | 0.00 | 0.00 | 0.00 | 88 | 1010.7 |
| 20260510030004 | 7 | 110 | 8.0 | 0.0 | 0.00 | 0.00 | 0.00 | 88 | 1010.7 |
| 20260509204502 | 10 | 130 | 1.6 | 0.0 | 0.00 | 0.00 | 0.00 | 72 | 1013.4 |
| 20260509203002 | 10 | 140 | 1.6 | 0.0 | 0.00 | 0.00 | 0.00 | 72 | 1013.4 |
| 20260509201502 | 12 | 100 | 4.8 | 0.0 | 0.00 | 0.00 | 0.00 | 65 | 1013.3 |
| 20260509200002 | 12 | 100 | 4.8 | 0.0 | 0.00 | 0.00 | 0.00 | 65 | 1013.3 |
| 20260509194502 | 12 | 100 | 4.8 | 0.0 | 0.00 | 0.00 | 0.00 | 61 | 1013.1 |
| 20260509193002 | 12 | 110 | 4.8 | 0.0 | 0.00 | 0.00 | 0.00 | 61 | 1013.1 |
| 20260509191502 | 13 | 110 | 4.8 | 0.0 | 0.00 | 0.00 | 0.00 | 58 | 1013.0 |
| 20260509190003 | 13 | 120 | 3.2 | 0.0 | 0.00 | 0.00 | 0.00 | 58 | 1013.0 |
| 20260509184502 | 14 | 120 | 4.8 | 0.0 | 0.00 | 0.00 | 0.00 | 57 | 1013.1 |
| 20260509183002 | 14 | 120 | 4.8 | 0.0 | 0.00 | 0.00 | 0.00 | 57 | 1013.1 |
| 20260509181502 | 15 | 110 | 9.7 | 0.0 | 0.00 | 0.00 | 0.00 | 55 | 1013.1 |
| 20260509180002 | 15 | 110 | 9.7 | 0.0 | 0.00 | 0.00 | 0.00 | 55 | 1013.1 |
| 20260509174502 | 15 | 110 | 9.7 | 0.0 | 0.00 | 0.00 | 0.00 | 52 | 1013.3 |
| 20260509173002 | 15 | 110 | 11.3 | 0.0 | 0.00 | 0.00 | 0.00 | 52 | 1013.3 |
| 20260509171502 | 15 | 110 | 11.3 | 0.0 | 0.00 | 0.00 | 0.00 | 51 | 1013.6 |
| 20260509170002 | 15 | 100 | 9.7 | 0.0 | 0.00 | 0.00 | 0.00 | 51 | 1013.6 |
| 20260509164503 | 16 | 100 | 9.7 | 0.0 | 0.00 | 0.00 | 0.00 | 49 | 1013.9 |
| 20260509163002 | 16 | 60 | 6.4 | 0.0 | 0.00 | 0.00 | 0.00 | 49 | 1013.9 |
| 20260509161502 | 16 | 100 | 3.2 | 0.0 | 0.00 | 0.00 | 0.00 | 49 | 1014.2 |
| 20260509160003 | 16 | 100 | 3.2 | 0.0 | 0.00 | 0.00 | 0.00 | 49 | 1014.2 |
| 20260509154502 | 15 | 100 | 3.2 | 0.0 | 0.00 | 0.00 | 0.00 | 49 | 1014.3 |
| 20260509153002 | 15 | 90 | 6.4 | 0.0 | 0.00 | 0.00 | 0.00 | 49 | 1014.3 |
| 20260509151503 | 15 | 90 | 6.4 | 0.0 | 0.00 | 0.00 | 0.00 | 49 | 1014.4 |
| 20260509150002 | 15 | 90 | 3.2 | 0.0 | 0.00 | 0.00 | 0.00 | 49 | 1014.4 |
| 20260509144502 | 15 | 90 | 3.2 | 0.0 | 0.00 | 0.00 | 0.00 | 55 | 1014.6 |
| 20260509143002 | 15 | 70 | 4.8 | 0.0 | 0.00 | 0.00 | 0.00 | 55 | 1014.6 |
| 20260509141502 | 15 | 70 | 4.8 | 0.0 | 0.00 | 0.00 | 0.00 | 49 | 1014.8 |
| 20260509140002 | 15 | 60 | 4.8 | 0.0 | 0.00 | 0.00 | 0.00 | 49 | 1014.8 |
| 20260509134502 | 16 | 190 | 8.0 | 0.0 | 0.00 | 0.00 | 0.00 | 43 | 1015.1 |
| 20260509133003 | 16 | 190 | 8.0 | 0.0 | 0.00 | 0.00 | 0.00 | 43 | 1015.1 |
| 20260509131502 | 15 | 70 | 3.2 | 0.0 | 0.00 | 0.00 | 0.00 | 49 | 1015.3 |
| 20260509130002 | 15 | 70 | 3.2 | 0.0 | 0.00 | 0.00 | 0.00 | 49 | 1015.3 |
| 20260509124502 | 15 | 70 | 3.2 | 0.0 | 0.00 | 0.00 | 0.00 | 52 | 1015.4 |
| 20260509123002 | 15 | 40 | 6.4 | 0.0 | 0.00 | 0.00 | 0.00 | 52 | 1015.4 |
| 20260509121502 | 15 | 40 | 6.4 | 0.0 | 0.00 | 0.00 | 0.00 | 49 | 1015.5 |
| 20260509120002 | 15 | 40 | 3.2 | 0.0 | 0.00 | 0.00 | 0.00 | 49 | 1015.5 |
| 20260509114502 | 14 | 60 | 4.8 | 0.0 | 0.00 | 0.00 | 0.00 | 49 | 1015.7 |
| 20260509113003 | 14 | 60 | 4.8 | 0.0 | 0.00 | 0.00 | 0.00 | 49 | 1015.7 |
| 20260509111502 | 15 | 60 | 4.8 | 0.0 | 0.00 | 0.00 | 0.00 | 48 | 1015.8 |
| 20260509110002 | 15 | 280 | 4.8 | 0.0 | 0.00 | 0.00 | 0.00 | 48 | 1015.8 |
| 20260509104502 | 15 | 280 | 4.8 | 0.0 | 0.00 | 0.00 | 0.00 | 53 | 1015.9 |
| 20260509103002 | 15 | 280 | 4.8 | 0.0 | 0.00 | 0.00 | 0.00 | 53 | 1015.9 |
| 20260509101502 | 13 | 280 | 4.8 | 0.0 | 0.00 | 0.00 | 0.00 | 52 | 1016.1 |
| 20260509100002 | 13 | 40 | 4.8 | 0.0 | 0.00 | 0.00 | 0.00 | 52 | 1016.1 |
| 20260509094502 | 13 | 40 | 4.8 | 0.0 | 0.00 | 0.00 | 0.00 | 59 | 1016.1 |